Theta_e
312 312 312 311 312 312 311 307 305 307 308 310 310 310 310 310 310 316 317 315 312 312 319 318 317 318 317 320 321 321 321 321 321 321 321 323 322 323 324 324 325 333 342 349 353
312 312 312 311 311 312 313 312 308 306 307 307 309 310 310 310 317 317 316 311 309 314 319 318 319 318 318 318 321 320 320 321 321 321 321 322 322 322 323 323 325 330 335 347 352
312 312 312 312 312 312 312 313 313 309 306 307 307 309 309 310 319 316 317 311 310 315 316 317 317 318 318 318 320 320 321 321 321 320 321 322 322 322 322 322 325 328 326 338 348
310 310 311 311 311 311 312 312 313 313 307 306 307 309 309 319 317 320 315 310 311 316 315 315 316 316 317 317 319 320 321 321 320 321 321 321 321 321 322 323 325 325 324 324 342
309 309 309 309 310 310 311 312 313 313 310 306 307 309 314 318 316 319 315 312 312 313 314 316 316 316 316 317 318 319 319 319 320 321 319 319 320 320 322 322 324 324 324 326 327
308 308 308 309 310 310 311 312 313 313 309 306 306 309 316 316 312 320 322 316 315 314 315 317 317 317 316 316 316 318 318 318 319 319 319 319 319 321 322 323 323 324 325 329 340
308 308 309 310 311 311 311 312 312 309 307 306 306 313 316 316 316 320 320 317 314 316 318 316 315 315 317 317 318 319 319 319 320 320 319 320 320 321 322 322 323 324 324 324 335
309 308 309 310 311 312 312 311 313 312 308 306 307 317 315 314 314 316 317 316 315 316 315 315 313 316 318 319 318 318 319 319 320 319 319 319 319 321 322 322 322 324 324 324 325
309 309 309 310 311 312 311 313 311 309 307 308 318 317 319 315 315 315 319 317 316 316 314 314 315 317 318 319 320 320 319 319 319 319 319 319 320 321 322 322 322 323 324 324 324
309 309 311 310 312 310 313 316 317 319 317 318 317 320 319 318 320 317 316 317 316 316 317 317 317 318 319 319 320 320 320 318 318 319 318 319 320 320 321 321 322 323 323 324 326
309 309 311 311 310 311 313 318 320 322 318 318 317 317 317 316 316 318 317 318 318 320 321 319 319 319 319 319 319 318 318 318 319 319 318 318 319 320 321 321 322 322 324 328 331
309 310 312 312 310 311 313 315 314 313 316 316 315 316 315 315 316 318 318 318 319 320 320 320 320 319 318 318 319 319 319 319 317 318 318 319 320 320 321 322 325 327 329 330 331
308 310 312 311 311 313 314 313 312 311 317 316 315 315 316 316 316 317 319 320 318 320 320 320 319 319 318 318 319 319 318 318 318 320 320 321 321 321 322 326 327 328 330 332 333
308 309 312 313 313 314 315 313 312 311 319 317 317 316 316 317 318 316 316 319 322 321 321 321 320 318 319 319 319 320 318 318 320 321 320 321 318 322 324 327 329 329 331 334 336
308 309 311 312 314 316 314 312 311 312 321 316 316 315 316 317 317 318 316 318 320 321 321 321 319 319 319 319 319 319 319 320 320 321 322 322 321 323 323 325 330 332 334 335 336
308 308 311 314 315 314 312 312 313 320 320 316 315 315 316 317 317 317 317 318 318 321 320 321 319 319 319 319 319 319 320 321 321 322 323 322 322 321 323 330 332 334 334 334 334
307 308 312 312 314 311 312 316 319 318 315 315 314 315 315 316 317 317 317 318 320 321 322 320 319 316 316 319 319 320 322 324 324 322 322 322 322 323 332 331 333 334 333 332 330
307 309 312 312 311 311 314 318 318 315 314 312 314 315 315 316 317 317 317 317 316 319 322 323 321 316 314 317 320 321 323 324 325 325 323 323 322 330 329 331 331 331 330 327 326
308 312 315 312 311 311 318 318 317 314 312 313 315 316 315 316 316 317 318 317 315 318 320 321 320 313 312 314 315 320 320 319 324 324 325 324 331 330 329 329 328 329 324 323 322
308 313 314 311 311 315 318 315 314 312 312 313 315 314 316 316 316 317 318 316 315 315 318 318 320 314 314 312 314 315 317 321 320 325 329 324 325 327 332 329 325 324 323 321 320
311 314 312 311 313 316 316 316 313 311 312 313 314 315 314 314 314 315 317 316 314 315 316 319 322 319 316 317 317 318 317 318 320 323 327 328 329 331 327 324 323 321 318 319 320
312 313 311 312 314 313 313 313 309 313 312 313 313 313 314 314 315 315 315 314 311 313 315 318 321 324 322 317 314 317 320 320 323 322 321 321 324 323 319 316 316 316 316 316 316
313 313 311 312 313 313 313 312 312 313 312 312 312 312 312 313 314 312 312 311 311 312 315 316 318 321 318 314 312 315 317 317 319 321 323 324 321 315 314 315 316 316 316 315 315
313 313 313 313 312 314 313 313 313 311 310 310 311 311 312 313 312 313 312 311 310 311 310 311 314 316 318 316 314 313 313 313 315 319 320 320 319 318 314 314 314 315 316 315 315
312 314 312 314 313 313 313 312 311 312 311 311 312 311 312 314 313 313 312 312 311 311 311 312 314 313 312 311 311 311 311 311 312 312 314 314 312 312 311 313 314 313 314 313 313
313 313 312 312 312 312 310 312 311 310 310 312 312 310 311 312 312 313 311 312 313 313 312 314 314 313 312 311 311 311 311 311 311 310 310 310 310 310 312 313 312 313 313 313 313
308 308 311 309 312 312 313 311 310 310 310 309 309 309 311 310 309 310 310 311 312 313 314 314 314 313 313 312 311 312 311 310 311 310 309 309 311 313 312 313 313 313 313 313 312
Wind_Speed
23 23 23 22 19 18 17 15 12 10 9 8 7 7 8 9 11 6 11 7 8 14 12 15 15 12 11 8 7 5 8 12 14 9 7 4 6 4 5 11 5 2 5 5 8
24 24 25 23 22 19 17 15 14 12 10 9 9 9 10 13 11 17 12 11 11 19 17 20 16 15 11 11 7 11 11 13 2 6 6 4 4 7 9 8 9 5 7 3 9
24 24 25 25 24 21 18 15 14 13 12 10 9 9 10 10 9 2 5 14 15 22 15 12 13 14 12 9 12 11 15 7 6 9 6 7 8 7 11 12 11 4 5 4 8
26 26 27 26 25 22 19 17 16 15 13 11 9 7 7 6 3 5 5 12 17 19 14 13 13 13 12 11 13 11 12 9 6 7 10 9 7 11 11 14 9 10 11 7 10
30 30 30 30 28 25 21 18 17 17 14 11 8 4 2 7 6 1 6 13 21 18 18 14 14 13 13 12 10 16 11 8 10 9 10 10 12 13 12 13 9 8 7 7 10
35 35 35 33 29 26 22 20 18 17 13 10 8 4 6 9 3 2 10 17 16 18 17 14 8 11 8 10 14 4 15 10 8 10 9 12 13 9 12 8 11 7 5 6 3
38 40 39 33 28 25 23 20 16 12 9 8 8 5 7 10 2 4 11 16 13 14 11 13 7 10 4 8 8 7 10 12 13 12 11 10 14 16 14 6 11 9 6 3 6
41 43 39 32 28 23 19 11 9 7 4 7 7 4 6 2 4 7 13 11 11 9 5 8 9 12 10 3 7 12 10 13 7 9 10 11 13 14 6 7 11 10 7 5 2
42 44 38 32 27 19 7 7 10 10 8 10 5 6 2 1 5 12 13 12 12 10 5 7 12 8 9 12 10 10 12 11 8 8 5 14 11 7 9 7 9 11 8 5 2
43 43 36 31 20 10 3 4 5 7 6 2 2 5 4 4 4 6 12 11 12 13 9 10 9 10 12 13 13 11 13 9 10 8 10 11 12 8 10 8 9 6 5 3 3
43 41 33 24 15 12 5 4 4 5 6 8 11 8 11 10 9 8 10 14 11 15 15 15 12 14 16 15 14 6 8 8 6 3 8 13 13 12 11 12 13 6 1 4 8
43 35 28 15 13 8 10 6 7 6 7 3 4 3 5 8 5 6 11 15 14 17 17 9 17 16 7 8 10 11 12 12 6 7 9 8 12 12 11 4 2 1 5 7 10
41 33 24 17 12 8 8 9 9 3 6 2 2 4 5 1 2 5 12 16 17 19 17 18 2 7 11 12 13 13 13 10 10 8 10 8 13 11 8 9 7 6 6 8 11
40 31 21 18 2 10 4 16 12 6 4 5 4 6 3 3 5 4 11 12 13 20 19 17 16 6 11 14 14 15 12 12 10 10 11 13 11 15 15 9 6 6 8 9 11
40 30 17 13 8 8 13 17 2 4 4 6 6 6 3 6 8 4 2 15 17 15 15 14 14 15 13 13 12 14 9 13 13 12 13 13 9 8 12 11 4 7 9 10 11
39 26 14 10 6 11 17 9 4 6 2 2 3 10 9 11 5 2 3 7 6 15 12 16 3 3 5 1 8 4 9 11 11 12 15 17 13 12 12 8 5 7 9 10 11
40 18 4 9 11 22 15 5 5 3 1 4 6 9 5 6 8 8 2 3 7 12 17 15 8 3 2 10 8 11 12 10 12 12 14 15 16 5 7 9 6 7 8 9 10
40 11 2 7 19 14 10 5 4 3 4 3 7 7 3 9 4 6 2 2 4 8 11 16 11 5 3 5 8 13 14 12 15 13 13 8 10 6 8 8 8 7 6 8 10
32 6 2 16 15 9 6 3 5 4 5 9 9 5 2 3 7 6 3 2 6 11 5 6 6 4 4 6 3 8 11 7 10 9 10 6 7 6 7 7 6 7 6 8 8
16 5 7 22 11 7 3 4 1 4 6 5 6 2 6 8 8 5 3 5 2 6 9 2 3 5 2 3 4 3 2 4 4 7 13 11 8 2 12 9 7 5 4 6 6
7 3 11 21 5 1 3 4 0 3 6 5 5 8 6 8 6 8 4 5 6 6 6 6 5 6 5 8 5 6 7 5 4 8 6 7 2 7 6 5 0 3 6 7 8
8 2 15 16 2 2 4 3 2 2 2 3 5 5 4 6 8 4 5 5 9 5 7 2 4 10 13 7 7 11 12 14 10 15 11 12 5 5 6 4 3 6 6 8 9
6 3 9 11 3 4 2 1 1 2 3 2 2 2 2 4 4 3 4 3 6 4 5 1 4 7 9 8 7 10 9 13 16 13 17 11 2 7 5 4 4 4 5 6 8
4 3 3 5 3 4 3 2 1 0 1 2 3 4 5 6 4 4 5 1 5 4 5 3 6 9 10 7 6 4 7 8 10 11 15 16 8 9 7 2 1 2 4 5 6
2 3 3 3 3 4 3 1 3 1 2 3 4 3 4 5 7 9 6 8 8 1 4 4 11 6 10 7 8 10 9 9 11 11 10 9 7 6 7 2 2 2 4 7 8
4 3 2 3 2 5 2 2 4 1 3 2 6 2 5 7 7 13 10 9 7 3 5 3 7 6 11 4 9 11 12 12 13 12 12 11 13 11 4 5 6 5 5 9 10
2 1 4 4 2 4 1 1 1 4 2 3 3 6 8 7 8 9 8 10 10 8 6 7 8 7 11 2 9 13 15 17 17 13 10 11 3 4 5 5 6 9 10 11 11
Wind_Direction
13 11 6 1 357 353 349 347 335 322 325 322 314 311 310 309 303 258 249 241 199 189 165 176 183 189 194 203 219 240 242 244 238 245 232 160 254 261 292 269 273 304 335 12 144
8 6 3 360 354 346 342 339 337 318 305 309 307 307 315 317 285 262 248 223 182 176 167 169 179 183 198 212 203 220 235 251 303 282 249 203 244 289 285 248 260 210 123 115 171
5 0 355 352 350 344 335 328 324 320 298 290 299 302 308 316 276 129 262 185 181 173 183 187 173 189 209 207 208 217 250 267 220 252 252 277 262 248 261 261 233 284 317 180 198
6 359 352 346 341 338 329 320 315 313 295 275 277 295 293 271 316 105 128 172 179 172 182 184 187 201 217 212 214 251 236 250 248 225 250 252 285 259 250 258 298 301 299 263 208
3 359 351 345 337 333 326 318 310 305 293 269 255 273 274 233 263 65 174 165 161 182 193 193 195 210 223 222 215 235 250 245 244 242 250 263 251 255 254 256 270 286 287 254 230
2 357 350 345 338 332 325 319 310 299 282 250 234 196 244 255 62 115 158 163 176 185 196 204 216 220 275 231 220 227 240 241 237 237 229 244 247 234 241 240 266 263 268 245 224
0 355 352 346 340 333 327 321 314 300 265 224 203 180 250 267 96 157 161 183 187 193 194 211 236 203 215 217 227 226 238 222 233 237 234 231 246 230 247 256 254 251 259 260 226
359 356 352 348 342 335 331 341 343 318 230 187 165 206 262 196 213 192 178 181 190 196 238 214 217 233 232 100 197 228 239 248 189 217 221 221 246 205 172 246 251 244 257 273 293
359 355 352 350 342 339 359 47 45 53 95 122 153 230 261 226 220 208 192 186 177 194 209 181 190 220 188 213 212 204 249 214 164 207 189 212 246 174 191 235 253 259 255 271 302
358 355 355 350 352 7 46 66 54 50 99 170 211 230 202 59 114 155 189 183 172 172 175 187 204 214 222 214 225 226 220 225 250 160 224 214 246 235 232 233 237 248 262 300 9
358 356 359 2 33 32 23 290 244 166 232 313 320 288 296 292 226 218 180 193 194 193 204 199 218 219 218 223 265 260 259 254 235 237 252 247 253 245 228 224 231 210 215 357 357
359 356 1 13 11 42 30 45 53 316 305 326 296 299 308 270 264 175 185 194 201 212 209 181 228 235 232 226 233 233 237 239 255 230 222 225 242 234 222 187 82 23 39 4 350
0 356 355 357 13 28 18 33 334 251 260 14 36 347 14 222 236 243 205 209 206 218 202 226 150 232 219 209 222 228 236 230 254 163 236 257 240 213 137 144 113 65 40 20 4
359 355 352 357 359 347 31 337 329 200 264 38 35 51 360 324 211 326 218 217 215 227 219 236 248 222 217 223 219 237 213 242 225 225 244 196 259 184 163 147 93 49 34 22 15
356 353 352 6 323 350 330 330 309 201 247 24 22 337 315 1 336 95 224 219 239 219 215 222 226 220 228 236 226 251 224 222 233 242 257 203 252 197 154 166 71 54 50 41 33
351 348 358 351 308 335 327 319 201 233 107 33 9 354 351 25 36 340 224 233 266 245 221 248 124 264 290 327 246 251 225 236 241 246 237 238 213 238 182 112 107 81 63 51 42
348 343 323 356 334 325 322 240 251 294 62 27 344 340 341 2 26 25 18 196 262 214 217 201 183 155 314 238 208 219 225 227 221 226 242 239 223 239 87 95 99 94 79 60 44
345 347 346 354 331 322 300 252 257 52 12 4 329 314 19 10 37 6 278 179 52 280 278 221 184 228 30 264 291 219 242 247 254 246 235 146 218 114 114 116 106 89 69 57 46
346 349 13 343 335 318 274 273 25 16 355 338 307 286 170 17 325 319 8 352 27 6 282 247 196 141 69 40 267 184 230 352 289 276 279 217 117 147 151 147 151 127 80 55 42
336 311 25 344 331 284 271 54 58 24 336 316 305 323 311 341 315 334 286 63 32 11 344 51 251 204 119 236 91 295 72 222 229 270 262 259 255 210 174 152 138 119 65 40 23
316 286 6 345 316 314 31 58 345 60 342 321 322 299 312 324 315 315 300 82 9 326 312 301 267 179 211 211 248 180 196 229 267 229 245 263 259 13 125 100 207 41 16 5 338
314 307 356 350 68 26 35 357 358 317 345 302 288 295 298 315 302 291 294 333 355 300 294 32 291 263 254 27 286 264 269 278 249 231 239 259 243 131 121 107 59 60 39 35 14
330 323 357 333 22 38 62 190 286 330 2 315 273 305 315 301 291 275 295 13 358 314 340 156 217 250 213 204 206 245 236 242 257 273 257 243 231 142 131 117 72 32 25 26 6
301 321 83 59 62 348 360 85 242 77 215 292 303 260 275 259 227 280 275 300 340 359 13 301 274 278 287 2 325 267 237 232 238 244 253 249 224 220 184 276 312 10 1 358 357
332 63 14 345 49 354 304 310 290 241 222 255 199 278 293 282 285 266 291 281 245 164 239 267 259 250 269 289 280 277 263 235 239 260 269 294 293 266 304 299 273 317 329 329 332
317 321 166 312 285 276 148 157 292 322 281 216 275 298 286 277 299 302 305 275 279 242 246 211 262 285 276 245 267 272 263 255 260 258 260 264 271 271 69 252 259 281 304 312 319
8 275 281 120 213 276 49 61 218 310 223 292 317 296 279 312 320 299 291 285 282 285 273 256 263 249 271 172 282 269 263 255 246 241 256 250 13 100 212 263 295 303 308 311 326